Flag for Mexico Weather past 2 weeks in Saltillo, Coahuila, Mexico

Now
82 °F

Sunny.


Feels Like: 82 °F
Forecast: 61 / 83 °F
Wind: 12 mph from South

Location: Saltillo Airport

Current Time: Jul 25, 2014 at 11:34:03 AM

Latest Report: Jul 25, 2014 at 10:40 AM


Visibility: 10 mi

Pressure: 30.25 "Hg

Humidity: 45%

Dew point: 59 °F

Location of SaltilloLocation

Historic Weather in Saltillo — Graph

°F

Saltillo temperature yesterday

Maximum temperature yesterday: 86 °F (at 2:40 PM)
Minimum temperature yesterday: 64 °F (at 7:40 AM)
Average temperature yesterday: 76 °F

Past Weeks' High & Low Weather Summary

 TemperatureHumidityPressure
High95 °F (Jul 17, 1:40 PM)94% (Jul 11, 6:40 AM)30.30 "Hg (Jul 11, 6:40 AM)
Low63 °F (Jul 14, 5:40 AM)30% (Jul 17, 1:40 PM)30.01 "Hg (Jul 17, 7:40 PM)
Average77 °F61%30.19 "Hg
* Reported Jul 10 9:40 AM — Jul 25 9:40 AM, Saltillo, Weather by CustomWeather, © 2014

Note: Actual official high and low records may vary slightly from our data, if they occured in-between our weather recording intervals... More about our weather records

Advertising

Saltillo weather history for previous 24 hours

 ConditionsComfort  
Time TempWeatherWind HumidityBarometerVisibility
9:40 AM
Jul 25
79 °FScattered clouds.No wind54%30.26 "Hg10 mi
8:40 AM70 °FBroken clouds.No wind64%30.26 "Hg8 mi
7:40 AM64 °FPassing clouds.No wind83%30.24 "Hg8 mi
6:40 AM64 °FPassing clouds.No wind78%30.23 "Hg8 mi
5:40 AM66 °FPassing clouds.No wind78%30.21 "Hg8 mi
1:40 AM70 °FClear.No wind69%30.22 "Hg10 mi
12:40 AM72 °FClear.No wind69%30.24 "Hg10 mi
11:40 PM
Jul 24
72 °FClear.No wind69%30.24 "Hg10 mi
9:40 PM72 °FPassing clouds.No wind69%30.22 "Hg10 mi
8:40 PM72 °FBroken clouds.7 mph69%30.20 "Hg10 mi
7:40 PM73 °FBroken clouds.9 mph69%30.17 "Hg8 mi
6:40 PM75 °FPartly sunny.17 mph69%30.16 "Hg8 mi
4:40 PM82 °FPartly sunny.14 mph66%30.16 "Hg10 mi
3:40 PM86 °FPartly sunny.17 mph52%30.17 "Hg10 mi
2:40 PM86 °FPartly sunny.17 mph52%30.20 "Hg10 mi
1:40 PM84 °FPartly sunny.9 mph45%30.22 "Hg10 mi
12:40 PM82 °FPartly sunny.9 mph51%30.24 "Hg10 mi
11:40 AM82 °FScattered clouds.No wind51%30.25 "Hg10 mi
Weather by CustomWeather, © 2014

See weather overviewHow to use our weather pages